Location: Mactaquac Provincial Park
(45.9573°N, 66.8897°W)
Time: 21:55:45
(UTC-03:00)

Cosmos 1867 - Visible Passes

Search period start: 26 March 2017 00:00
Search period end: 05 April 2017 00:00
Orbit: 776 x 799 km, 65.0° (Epoch: 25 March)

Date Brightness Start Highest point End Pass type
(mag) Time Alt. Az. Time Alt. Az. Time Alt. Az.
26 Mar 6.5 00:43:26 10° NW 00:45:49 13° NNW 00:48:13 10° N visible
26 Mar 6.6 02:30:53 10° N 02:32:02 11° N 02:33:10 10° NNE visible
26 Mar 5.8 04:13:24 10° NNW 04:17:45 23° NE 04:22:03 10° E visible
26 Mar 3.5 05:56:32 10° NW 06:02:02 86° WSW 06:07:28 10° SSE visible
26 Mar 4.1 20:40:15 10° S 20:45:12 37° ESE 20:50:11 10° NE visible
26 Mar 4.7 22:23:33 10° WSW 22:28:44 43° NW 22:33:58 10° NNE visible
27 Mar 6.4 00:10:53 10° NW 00:13:48 14° NNW 00:16:44 10° N visible
27 Mar 6.7 01:59:34 10° N 01:59:57 10° N 02:00:19 10° N visible
27 Mar 6.0 03:41:53 10° NNW 03:45:50 20° NNE 03:49:45 10° ENE visible
27 Mar 3.8 05:24:53 10° NNW 05:30:23 73° NE 05:35:48 10° SE visible
27 Mar 4.5 20:09:10 10° S 20:13:41 28° ESE 20:18:16 10° NE visible
27 Mar 4.3 21:51:39 10° SW 21:56:59 54° NW 22:02:22 10° NNE visible
27 Mar 6.3 23:38:25 10° WNW 23:41:49 16° NNW 23:45:14 10° NNE visible
28 Mar 6.2 03:10:24 10° NNW 03:13:53 17° NNE 03:17:22 10° ENE visible
28 Mar 4.2 04:53:16 10° NNW 04:58:40 57° NE 05:04:01 10° SE visible
28 Mar 4.5 06:37:28 10° WNW 06:41:55 26° WSW 06:46:21 10° SSW visible
28 Mar 3.9 21:19:50 10° SW 21:25:17 70° NW 21:30:46 10° NNE visible
28 Mar 6.1 23:06:00 10° WNW 23:09:52 19° NNW 23:13:44 10° NNE visible
29 Mar 6.7 00:55:38 10° N 00:55:46 10° N 00:55:55 10° N visible
29 Mar 6.4 02:38:54 10° N 02:41:54 15° NNE 02:44:53 10° NE visible
29 Mar 4.6 04:21:41 10° NNW 04:26:56 44° NE 04:32:07 10° ESE visible
29 Mar 4.1 06:05:31 10° NW 06:10:26 35° WSW 06:15:17 10° S visible
29 Mar 3.6 20:48:08 10° SW 20:53:37 90° NNE 20:59:07 10° NE visible
29 Mar 5.9 22:33:41 10° W 22:37:57 23° NNW 22:42:14 10° NNE visible
30 Mar 6.7 00:22:39 10° NNW 00:23:41 10° N 00:24:43 10° N visible
30 Mar 6.5 02:07:25 10° N 02:09:53 13° NNE 02:12:21 10° NE visible
30 Mar 5.0 03:50:07 10° NNW 03:55:09 35° NE 04:00:08 10° ESE visible
30 Mar 3.8 05:33:41 10° NW 05:38:53 47° WSW 05:44:03 10° S visible
30 Mar 3.6 20:16:34 10° SSW 20:21:59 70° ESE 20:27:26 10° NE visible
30 Mar 5.7 22:01:27 10° W 22:06:04 27° NW 22:10:43 10° NNE visible
30 Mar 6.6 23:49:57 10° NNW 23:51:37 11° NNW 23:53:18 10° N visible
31 Mar 6.6 01:35:57 10° N 01:37:51 12° NNE 01:39:44 10° NE visible
31 Mar 5.4 03:18:35 10° NNW 03:23:19 29° NE 03:28:02 10° E visible
31 Mar 3.5 05:01:55 10° NW 05:07:19 62° WSW 05:12:40 10° SSE visible
31 Mar 5.4 21:29:19 10° WSW 21:34:14 33° NW 21:39:10 10° NNE visible
31 Mar 6.5 23:17:18 10° NW 23:19:34 12° NNW 23:21:50 10° N visible
01 Apr 6.6 01:04:31 10° N 01:05:47 11° N 01:07:03 10° NNE visible
01 Apr 5.6 02:47:02 10° NNW 02:51:27 24° NE 02:55:50 10° E visible
01 Apr 3.4 04:30:13 10° NW 04:35:42 82° SW 04:41:08 10° SSE visible
01 Apr 5.1 06:15:58 10° WNW 06:18:25 13° WSW 06:20:52 10° SW visible
01 Apr 5.0 20:57:17 10° WSW 21:02:25 41° NW 21:07:37 10° NNE visible
01 Apr 6.4 22:44:44 10° NW 22:47:33 14° NNW 22:50:21 10° N visible
02 Apr 6.6 00:33:09 10° N 00:33:42 10° N 00:34:16 10° NNE visible
02 Apr 5.9 02:15:32 10° NNW 02:19:33 20° NNE 02:22:55 12° ENE visible
02 Apr 3.8 03:58:33 10° NW 04:11:09 - SE 04:03:20 66° N visible
02 Apr 5.5 05:43:23 10° WNW 05:52:13 - SSW 05:43:46 11° WNW visible
02 Apr 4.6 20:25:21 10° SW 20:30:40 52° NW 20:36:01 10° NNE visible
02 Apr 6.3 22:12:14 10° WNW 22:15:33 16° NNW 22:18:52 10° NNE visible
03 Apr 6.1 01:44:01 10° NNW 01:47:37 17° NNE 01:50:00 14° ENE visible
03 Apr 4.6 03:26:56 10° NNW 03:30:34 40° N 03:30:34 40° N visible
03 Apr 6.2 21:39:49 10° WNW 21:43:35 19° NNW 21:47:22 10° NNE visible
04 Apr 6.2 01:12:31 10° NNW 01:15:38 15° NNE 01:18:10 11° NE visible
04 Apr 5.0 02:55:20 10° NNW 02:58:45 34° N 02:58:45 34° N visible
04 Apr 5.8 04:39:14 10° NW 04:39:22 11° NW 04:39:22 11° NW visible
04 Apr 6.0 21:07:28 10° W 21:11:40 22° NNW 21:15:52 10° NNE visible
04 Apr 6.6 22:56:33 10° NNW 22:57:27 10° N 22:58:19 10° N visible
